Location: Unspecified
(0.0000°N, 0.0000°E)
Time: 03:14:15
(UTC+00:00)

STARLINK-1273 - Pass Details

Date: 16 February 2026
Orbit: 434 x 436 km, 53.1° (Epoch: 6 March)

Event Time Altitude Azimuth Distance (km) Brightness Sun altitude
Rises 18:30:39 0° 344° (NNW) 2,416 7.0 -4.1°
Reaches altitude 10° 18:32:59 10° 357° (N) 1,548 5.8 -4.6°
Maximum altitude 18:35:58 26° 56° (NE) 889 4.2 -5.4°
Drops below altitude 10° 18:38:57 10° 115° (ESE) 1,549 5.4 -6.1°
Sets 18:41:17 0° 128° (SE) 2,418 6.5 -6.7°
